Flag for Canada Weather past 2 weeks in Clarington, Ontario, Canada

Now
68 °F

Passing clouds.


Feels Like: 68 °F
Forecast: N/A
Wind: 18 mph from West

Location: Peterborough Airport

Current Time: Apr 28, 2015 at 4:43:21 PM

Latest Report: Apr 28, 2015 at 4:00 PM


Visibility: 9 mi

Pressure: 29.87 "Hg

Humidity: 43%

Dew point: 45 °F

Location of ClaringtonLocation

Historic Weather in Clarington — Graph

°F

Clarington temperature yesterday

Maximum temperature yesterday: 55 °F (at 4:00 PM)
Minimum temperature yesterday: 39 °F (at 5:00 AM)
Average temperature yesterday: 47 °F

Past Weeks' High & Low Weather Summary

 TemperatureHumidityPressure
High68 °F (Apr 13, 3:00 PM)100% (Apr 14, 2:57 AM)30.44 "Hg (Apr 14, 2:57 AM)
Low25 °F (Apr 25, 6:00 AM)19% (Apr 18, 4:00 PM)29.42 "Hg (Apr 20, 4:51 PM)
Average45 °F68%29.92 "Hg
* Reported Apr 13 3:00 PM — Apr 28 3:00 PM, Clarington, Weather by CustomWeather, © 2015

Note: Actual official high and low records may vary slightly from our data, if they occured in-between our weather recording intervals... More about our weather records

Advertising

Clarington weather history for previous 24 hours

 ConditionsComfort  
Time TempWeatherWind HumidityBarometerVisibility
3:00 PM
Tue, Apr 28
68 °FPassing clouds.20 mph43%29.89 "Hg9 mi
2:00 PM66 °FScattered clouds.13 mph46%29.92 "Hg9 mi
1:00 PM66 °FScattered clouds.16 mph43%29.94 "Hg9 mi
12:00 PM63 °FPassing clouds.10 mph49%29.96 "Hg9 mi
11:00 AM59 °FSunny.10 mph55%29.98 "Hg9 mi
10:00 AM54 °FSunny.9 mph63%29.99 "Hg9 mi
9:00 AM48 °FSunny.9 mph71%30.00 "Hg9 mi
8:00 AM45 °FSunny.10 mph81%30.00 "Hg9 mi
7:00 AM39 °FClear.7 mph93%30.00 "Hg9 mi
6:00 AM37 °FClear.7 mph93%29.98 "Hg9 mi
5:00 AM37 °FClear.7 mph93%29.98 "Hg9 mi
4:00 AM39 °FClear.8 mph87%29.98 "Hg9 mi
3:00 AM41 °FPassing clouds.6 mph87%29.98 "Hg9 mi
2:00 AM43 °FPassing clouds.7 mph81%29.98 "Hg9 mi
1:00 AM45 °FPassing clouds.9 mph76%29.99 "Hg9 mi
12:00 AM46 °FOvercast.9 mph71%29.99 "Hg9 mi
11:00 PM
Mon, Apr 27
46 °FPassing clouds.9 mph71%29.98 "Hg9 mi
10:00 PM48 °FPassing clouds.8 mph66%29.96 "Hg9 mi
9:00 PM50 °FSunny.14 mph62%29.95 "Hg9 mi
8:00 PM52 °FOvercast.12 mph54%29.92 "Hg9 mi
7:00 PM54 °FOvercast.10 mph51%29.90 "Hg9 mi
6:00 PM55 °FMostly cloudy.14 mph47%29.89 "Hg9 mi
5:00 PM54 °FLight rain. Mostly cloudy.10 mph54%29.88 "Hg9 mi
4:54 PM54 °FLight rain. Overcast.12 mph58%29.87 "Hg9 mi
4:00 PM55 °FMostly cloudy.10 mph51%29.86 "Hg9 mi
Weather by CustomWeather, © 2015

See weather overviewHow to use our weather pages